EHI
0 0 0 0 0 0 0 0 0 0 0 0 0 0 0 0 0 0 0 0 0 0 0 0 0 0 0 0 0 0 0 0 0 0 0 0 0 0 0 0 0 0 0 0
0 0 0 0 0 0 0 0 0 0 0 0 0 0 0 0 0 0 0 0 0 0 0 0 0 0 0 0 0 0 0 0 0 0 0 0 0 0 0 0 0 0 0 0
0 0 0 0 0 0 0 0 0 0 0 0 0 0 0 0 0 0 0 0 0 0 0 0 0 0 0 0 0 0 0 0 0 0 0 0 0 0 0 0 0 0 0 0
0 0 0 0 0 0 0 0 0 0 0 0 0 0 0 0 0 0 0 0 0 0 0 0 0 0 0 0 0 0 0 0 0 0 0 0 0 0 0 0 0 0 0 0
0 0 0 0 0 0 0 0 0 0 0 0 0 0 0 0 0 0 0 0 0 0 0 0 0 0 0 0 0 0 0 0 0 0 0 0 0 0 0 0 0 0 0 0
0 0 0 0 0 0 0 0 0 0 0 0 0 0 0 0 0 0 0 0 0 0 0 0 0 0 0 0 0 0 0 0 0 0 0 0 0 0 0 0 0 0 0 0
0 0 0 0 0 0 0 0 0 0 0 0 0 0 0 0 0 0 0 0 0 0 0 0 0 0 0 0 0 0 0 0 0 0 0 0 0 0 0 0 0 0 0 0
0 0 0 0 0 0 0 0 0 0 0 0 0 0 0 0 0 0 0 0 0 0 0 0 0 0 0 0 0 0 0 0 0 0 0 0 0 0 0 0 0 0 0 0
0 0 0 0 0 0 0 0 0 0 0 0 0 0 0 0 0 0 0 0 0 0 0 0 0 0 0 0 0 0 0 0 0 0 0 0 0 0 0 0 0 0 0 0
0 0 0 0 0 0 0 0 0 0 0 0 0 0 0 0 0 0 0 0 0 0 0 0 0 0 0 0 1 1 0 0 0 0 0 0 0 0 0 0 0 0 0 0
0 0 0 0 0 0 0 0 0 0 0 0 0 0 0 0 0 0 0 0 0 0 0 0 0 0 0 0 1 1 0 0 0 0 0 0 0 0 0 0 0 0 0 0
0 0 0 0 0 0 0 0 0 0 0 0 0 0 0 0 0 0 0 0 0 0 0 0 0 0 0 0 1 1 0 0 0 0 0 0 0 0 0 0 0 0 0 0
0 0 0 0 0 0 0 0 0 0 0 0 0 0 0 0 0 0 0 0 0 0 0 0 0 0 0 0 0 0 0 0 0 0 0 0 0 0 0 0 0 0 0 0
0 0 0 0 0 0 0 0 0 0 0 0 0 0 0 0 0 0 0 0 0 0 0 0 0 0 0 0 0 0 0 0 0 0 0 0 0 0 0 0 0 0 0 0
0 0 0 0 0 0 0 0 0 0 0 0 0 0 0 0 0 0 0 0 0 0 0 0 0 0 0 0 0 0 0 1 0 0 0 0 0 0 0 0 0 0 0 0
0 0 0 0 0 0 0 0 0 0 0 0 0 0 0 0 0 0 0 0 0 0 0 0 0 0 0 0 0 0 0 0 0 0 0 0 0 0 0 0 0 0 0 0
0 0 0 0 0 0 0 0 0 0 0 0 0 0 0 0 0 0 0 0 0 0 0 0 0 0 0 0 0 0 0 0 0 0 0 0 0 0 0 0 0 0 0 0
0 0 0 0 0 0 0 0 0 0 0 0 0 0 0 0 0 0 0 0 0 0 0 0 0 0 0 0 0 0 0 0 0 0 0 0 0 0 0 0 0 0 0 0
0 0 0 0 0 0 0 0 0 0 0 0 0 0 0 0 0 0 0 0 0 0 0 0 0 0 0 0 0 0 0 0 0 0 0 0 0 0 0 0 0 0 0 0
0 0 0 0 0 0 0 0 0 0 0 0 0 0 0 0 0 0 0 0 0 0 0 0 0 0 0 0 0 0 0 0 0 1 1 1 0 0 0 0 0 0 0 0
0 0 0 0 0 0 0 0 0 0 0 0 0 0 0 0 0 0 0 0 0 0 0 0 0 0 0 0 0 0 0 0 0 1 2 1 0 0 0 0 0 0 0 0
0 0 0 0 0 0 0 0 0 0 0 0 0 0 0 0 0 0 0 0 0 0 0 0 0 0 0 0 0 0 0 0 0 0 1 1 0 0 0 0 0 0 0 0
0 0 0 0 0 0 0 0 0 0 0 0 0 0 0 0 0 0 0 0 0 0 0 0 0 0 0 0 0 0 0 0 0 0 0 0 0 0 0 0 0 0 0 0
0 0 0 0 0 0 0 0 0 0 0 0 0 0 0 0 0 0 0 0 0 0 0 0 0 0 0 0 0 0 0 0 0 0 0 0 0 0 0 0 0 0 0 0
0 0 0 0 0 0 0 0 0 0 0 0 0 0 0 0 0 0 0 0 0 0 0 0 0 0 0 0 0 0 0 0 0 0 0 0 0 0 0 0 0 0 0 0
0 0 0 0 0 0 0 0 0 0 0 0 0 0 0 0 0 0 0 0 0 0 0 0 0 0 0 0 0 0 0 0 0 0 0 0 0 0 0 0 0 0 0 0
0 0 0 0 0 0 0 0 0 0 0 0 0 0 0 0 0 0 0 0 0 0 0 0 0 0 0 0 0 0 0 0 0 0 0 0 0 0 0 0 0 0 0 0
Wind_Speed
3 1 4 5 7 9 10 8 6 4 5 4 3 1 1 5 7 9 9 10 11 10 10 10 9 9 8 8 8 8 7 7 6 6 5 5 5 5 4 4 4 4 4 4
5 4 5 6 7 9 10 9 9 9 7 2 1 2 3 6 8 9 10 10 11 11 11 11 11 10 9 8 8 8 8 7 6 6 5 5 5 5 5 4 4 4 4 4
4 3 5 7 7 8 8 9 9 8 4 1 2 2 3 5 8 9 9 10 10 11 11 10 10 10 9 9 9 9 8 7 6 6 6 6 6 5 5 5 4 4 4 4
4 5 7 1 2 5 8 8 9 8 6 4 3 2 2 4 7 8 8 9 9 9 9 9 9 9 9 9 9 9 8 7 7 7 6 6 6 6 6 5 5 5 5 4
6 7 6 3 3 5 6 6 7 8 6 4 3 4 4 4 5 6 7 8 7 8 8 8 9 9 9 9 9 8 8 8 7 7 7 7 7 7 6 5 5 5 5 5
7 8 7 3 3 3 5 6 5 7 6 5 6 5 3 4 4 5 6 6 6 7 8 8 8 8 9 9 9 8 8 8 8 7 7 7 7 6 6 5 5 5 5 5
10 9 7 1 4 6 7 1 2 5 6 7 6 1 4 5 4 5 6 6 7 7 7 7 8 8 9 8 8 8 7 7 7 7 7 7 6 5 5 5 5 5 5 5
9 9 7 5 7 7 3 2 1 3 5 6 4 3 5 5 5 6 6 7 7 7 6 6 7 8 8 7 6 6 6 6 6 6 6 5 6 5 5 5 5 5 5 5
8 6 0 5 6 3 3 3 2 2 4 5 6 5 6 6 6 6 6 6 6 6 6 6 6 6 7 6 6 6 6 6 6 6 5 5 6 6 5 5 5 5 4 4
8 7 6 6 6 6 6 6 4 3 4 6 7 7 7 6 6 6 6 6 5 6 6 6 6 5 5 5 6 7 6 6 6 6 5 5 4 4 4 5 5 4 4 4
9 7 4 6 6 5 4 4 4 4 5 6 7 7 7 7 6 6 5 5 5 5 5 5 5 5 4 5 6 6 6 5 5 5 5 5 4 3 4 4 3 4 4 4
8 7 6 4 4 3 3 3 4 5 6 6 7 7 7 6 6 6 6 6 5 5 5 5 5 5 4 5 5 6 5 5 4 4 4 4 4 3 1 1 2 2 2 3
5 2 2 1 2 3 3 2 3 4 6 7 6 6 7 6 6 6 6 6 5 5 5 5 5 4 4 4 5 5 5 4 4 4 4 4 4 4 4 3 2 2 3 3
5 4 4 5 4 3 3 3 3 4 5 6 6 6 6 6 6 6 5 5 5 5 5 4 4 4 3 4 4 4 4 3 4 4 4 4 4 4 3 3 3 3 3 4
8 7 5 4 4 4 4 5 5 5 6 6 6 7 7 7 6 5 5 5 5 5 4 4 4 3 3 3 4 4 3 3 3 3 3 3 3 3 3 3 3 2 2 3
8 7 6 6 6 6 6 6 6 6 6 7 7 6 6 6 6 6 5 5 5 5 4 4 3 3 3 3 3 3 2 3 3 3 3 3 3 3 3 3 3 3 3 2
10 10 9 9 9 8 7 7 6 6 6 6 7 7 7 7 6 6 5 4 4 4 4 3 3 2 3 3 3 2 2 3 4 3 3 3 3 3 3 3 3 3 3 2
10 10 10 10 9 8 7 7 6 6 6 6 7 7 7 7 6 6 5 5 4 4 3 3 3 2 3 3 2 2 2 3 3 3 3 3 3 3 3 3 3 3 2 2
8 8 8 8 8 7 6 6 6 6 6 7 7 7 6 6 5 5 5 5 4 4 2 2 2 2 2 2 2 2 3 3 3 2 2 3 3 3 3 3 3 3 2 2
7 7 7 7 7 7 6 6 6 6 6 7 7 7 6 6 6 5 5 4 2 2 2 2 2 2 2 2 2 2 2 3 3 2 2 3 3 3 3 3 3 3 3 3
6 7 7 7 6 6 6 7 7 7 7 7 8 7 6 6 5 5 4 3 3 2 2 2 1 1 1 1 2 2 2 2 2 2 2 2 2 3 3 3 3 3 3 3
5 6 7 7 7 6 5 6 7 7 7 7 7 7 7 6 5 4 3 2 3 3 2 1 1 2 1 1 2 2 2 2 2 1 2 2 2 2 2 2 2 2 3 3
5 6 6 7 7 7 7 6 7 7 7 7 7 7 6 5 4 4 3 2 2 2 1 1 2 2 1 1 1 2 2 2 1 1 1 2 2 2 2 2 2 2 2 2
5 6 6 6 7 8 7 6 6 6 6 6 6 6 5 4 3 2 2 4 3 2 1 2 3 2 1 1 1 1 1 1 1 1 1 1 1 1 1 2 2 2 2 3
6 6 7 7 7 6 7 7 7 7 6 5 5 5 3 3 3 3 3 3 4 3 2 3 3 2 1 1 1 1 0 0 0 0 1 1 1 1 1 1 2 2 2 2
5 5 5 5 5 5 5 5 5 5 5 5 4 3 3 3 4 3 3 3 4 2 2 2 2 2 1 1 1 1 1 1 1 0 0 1 1 1 1 2 2 2 2 2
5 5 5 5 4 4 5 5 5 4 4 4 4 3 3 3 3 3 3 3 3 2 2 2 2 1 1 1 1 1 1 1 1 1 1 1 1 1 1 2 2 2 2 2
Wind_Direction
260 257 221 226 220 216 228 254 272 295 298 304 326 311 167 165 166 169 173 179 182 185 186 186 188 190 190 190 189 185 186 192 196 194 190 190 181 188 188 191 200 196 192 193
221 212 224 235 233 228 232 244 255 270 279 290 292 195 179 171 171 176 180 184 186 188 188 189 190 189 188 189 190 188 190 191 189 192 185 187 187 186 184 186 195 189 195 196
230 193 233 239 230 224 222 225 236 248 255 244 206 181 188 180 182 184 183 184 186 189 189 192 192 189 188 191 189 191 192 188 185 187 185 189 188 185 187 186 186 191 198 199
246 223 243 275 115 223 238 242 234 249 259 248 238 206 193 194 190 188 183 183 185 186 185 188 187 185 187 187 189 192 192 189 187 189 187 187 189 191 197 196 188 196 200 204
242 247 252 244 211 208 228 243 233 236 240 222 181 179 167 168 192 191 184 182 180 180 177 180 179 179 180 183 187 190 192 193 190 191 190 190 192 197 198 198 197 200 202 207
231 244 251 236 149 179 229 241 214 214 214 186 184 206 151 141 168 177 171 169 167 167 168 170 173 178 182 183 187 193 195 198 193 192 191 195 200 201 195 198 204 205 205 215
234 243 251 232 137 179 223 238 133 204 204 187 201 221 107 132 140 151 154 155 158 162 164 169 171 177 185 187 194 195 193 193 192 190 194 196 198 198 197 198 203 210 209 214
224 234 235 151 170 209 274 33 189 212 202 193 181 127 129 135 136 141 144 148 156 158 158 163 171 180 187 194 193 183 181 184 188 188 187 189 191 197 199 197 201 207 212 214
227 239 273 180 220 270 305 270 262 231 198 182 170 159 148 141 140 142 143 145 152 153 151 155 167 182 189 184 178 175 177 183 185 185 185 187 188 190 194 200 208 211 214 219
229 237 233 230 243 251 254 261 266 243 202 184 174 161 153 147 144 143 142 143 151 154 153 153 163 179 186 171 174 176 180 182 182 183 182 184 188 193 196 201 209 214 215 222
233 235 230 229 228 239 248 247 237 212 193 184 172 162 158 153 149 145 140 144 154 157 154 153 156 163 169 171 177 184 184 181 183 183 183 186 186 195 207 207 217 224 225 227
233 225 224 216 197 206 220 220 203 185 175 171 170 161 157 151 148 148 147 147 151 150 154 155 154 155 157 168 184 189 184 181 180 179 180 184 184 180 154 220 192 224 275 272
253 227 218 183 182 194 207 199 184 182 174 164 161 159 154 147 147 148 149 151 151 152 155 155 154 155 154 166 185 194 189 179 177 182 182 187 191 193 187 174 172 189 211 234
219 198 203 205 206 200 187 168 157 155 158 158 152 151 148 146 146 149 151 150 149 149 154 155 156 156 157 168 183 191 187 175 179 184 188 191 195 201 202 198 194 199 195 204
221 222 221 200 186 177 168 165 163 160 156 152 149 150 151 150 149 147 143 145 148 148 149 153 157 153 154 170 182 187 185 180 183 187 192 194 195 200 206 212 215 215 205 187
214 212 205 202 201 195 189 186 183 175 166 159 155 154 152 148 142 138 139 147 153 152 151 154 155 151 161 173 177 185 182 167 184 190 192 193 196 202 209 214 219 222 224 226
203 205 207 208 206 201 199 197 190 179 169 165 159 152 148 145 143 141 142 149 151 148 150 151 148 146 166 178 182 187 184 170 179 196 197 199 205 211 216 221 228 231 234 226
227 224 218 211 204 198 194 190 184 176 170 162 154 155 156 156 154 150 146 142 138 136 135 136 131 147 166 178 183 190 190 187 190 198 200 204 212 219 223 227 232 237 242 213
225 220 214 209 204 197 191 184 178 169 161 158 160 163 161 157 151 148 147 148 149 149 138 120 121 170 162 158 178 192 193 190 191 197 202 196 211 219 223 231 237 238 239 237
206 200 194 191 190 189 184 177 168 161 159 159 158 156 156 155 151 150 149 148 147 132 124 123 167 172 168 159 178 199 196 198 199 200 202 208 214 221 225 231 239 242 242 243
187 183 179 176 175 177 176 171 164 160 159 162 162 160 157 152 151 150 148 142 122 110 121 142 170 161 163 156 191 195 193 198 206 209 209 215 223 231 237 239 242 247 250 252
176 171 168 166 164 162 161 162 158 154 152 156 155 149 147 149 150 145 139 134 126 122 140 147 136 100 102 178 187 185 191 201 216 223 228 232 236 241 245 249 252 256 261 266
163 160 157 157 155 147 143 146 148 149 149 151 151 152 150 145 149 148 142 128 133 131 140 126 99 103 129 186 175 179 189 198 211 224 235 242 243 245 249 254 262 267 274 282
145 143 141 141 140 139 139 136 134 135 136 138 142 144 142 135 126 119 114 128 131 138 137 116 123 130 170 190 176 183 197 207 218 233 239 247 253 259 264 269 275 283 287 291
138 138 138 139 138 135 133 130 127 126 127 125 125 127 128 126 129 130 128 131 126 131 125 123 128 133 164 147 145 162 186 248 291 264 238 257 269 278 284 286 287 289 293 295
133 132 132 133 129 128 131 132 131 131 129 124 118 116 115 118 124 128 127 130 125 117 114 120 130 139 125 100 102 101 96 102 108 128 281 301 302 299 296 297 296 298 305 310
124 124 124 122 122 127 131 132 133 135 134 132 129 128 127 126 128 130 131 130 127 123 114 111 113 113 99 91 89 82 72 64 50 31 15 360 343 328 323 314 313 320 327 325